TimeEDT,TemperatureF,Dew PointF,Humidity,Sea Level PressureIn,VisibilityMPH,Wind Direction,Wind SpeedMPH,Gust SpeedMPH,PrecipitationIn,Events,Conditions,WindDirDegrees,DateUTC
12:51 AM,68.0,66.0,93,29.99,10.0,Calm,Calm,-,N/A,,Clear,0,2013-07-20 04:51:00
1:51 AM,69.1,66.0,90,30.00,10.0,Calm,Calm,-,N/A,,Clear,0,2013-07-20 05:51:00
2:51 AM,69.1,66.0,90,29.99,10.0,Calm,Calm,-,0.00,,Scattered Clouds,0,2013-07-20 06:51:00
3:07 AM,69.8,64.4,83,30.03,10.0,SSE,4.6,-,N/A,,Mostly Cloudy,150,2013-07-20 07:07:00
3:51 AM,70.0,64.9,84,29.98,10.0,SSE,5.8,-,0.01,Rain,Light Rain,160,2013-07-20 07:51:00
4:06 AM,69.8,66.2,88,30.01,10.0,Calm,Calm,-,0.01,,Overcast,0,2013-07-20 08:06:00
4:31 AM,69.8,64.4,83,30.00,10.0,SE,4.6,-,0.01,,Scattered Clouds,140,2013-07-20 08:31:00
4:51 AM,69.1,64.9,87,29.98,10.0,Calm,Calm,-,0.01,,Mostly Cloudy,0,2013-07-20 08:51:00
5:16 AM,69.8,64.4,83,30.01,10.0,SE,4.6,-,N/A,,Overcast,140,2013-07-20 09:16:00
5:51 AM,70.0,66.0,87,29.98,10.0,Calm,Calm,-,N/A,,Overcast,0,2013-07-20 09:51:00
6:51 AM,69.1,66.9,93,29.99,10.0,SSE,8.1,-,0.20,Rain,Light Rain,150,2013-07-20 10:51:00
7:51 AM,71.1,68.0,90,30.01,10.0,Calm,Calm,-,0.00,,Overcast,0,2013-07-20 11:51:00
8:51 AM,73.9,69.1,85,30.01,10.0,Calm,Calm,-,N/A,,Mostly Cloudy,0,2013-07-20 12:51:00
9:23 AM,73.4,68.0,83,30.05,10.0,West,5.8,17.3,N/A,,Scattered Clouds,280,2013-07-20 13:23:00
9:51 AM,75.9,68.0,76,30.01,10.0,Variable,3.5,-,N/A,,Mostly Cloudy,0,2013-07-20 13:51:00
10:26 AM,75.2,69.8,83,30.04,10.0,South,5.8,-,N/A,,Mostly Cloudy,180,2013-07-20 14:26:00
10:51 AM,77.0,69.1,76,30.00,10.0,Variable,3.5,-,N/A,,Mostly Cloudy,0,2013-07-20 14:51:00
11:15 AM,78.8,68.0,69,30.03,10.0,WSW,11.5,17.3,N/A,,Mostly Cloudy,250,2013-07-20 15:15:00
11:51 AM,82.0,69.1,65,29.98,10.0,WSW,12.7,18.4,N/A,,Partly Cloudy,240,2013-07-20 15:51:00
12:51 PM,82.9,68.0,60,29.97,10.0,West,8.1,-,N/A,,Partly Cloudy,260,2013-07-20 16:51:00
1:51 PM,82.0,66.0,58,29.96,10.0,WSW,10.4,-,N/A,,Mostly Cloudy,250,2013-07-20 17:51:00
2:51 PM,84.9,66.0,53,29.95,10.0,WSW,11.5,17.3,0.00,,Partly Cloudy,250,2013-07-20 18:51:00
3:51 PM,84.0,68.0,58,29.93,10.0,SW,8.1,-,0.00,,Partly Cloudy,220,2013-07-20 19:51:00
4:51 PM,86.0,66.0,51,29.91,10.0,WNW,10.4,-,N/A,,Scattered Clouds,290,2013-07-20 20:51:00
5:51 PM,68.0,64.0,87,29.97,10.0,Calm,Calm,-,0.13,Rain,Light Rain,0,2013-07-20 21:51:00
6:51 PM,72.0,64.9,78,29.95,10.0,SW,5.8,-,0.00,,Clear,230,2013-07-20 22:51:00
7:51 PM,71.1,66.0,84,29.96,10.0,Calm,Calm,-,N/A,,Clear,0,2013-07-20 23:51:00
8:51 PM,70.0,66.0,87,29.96,10.0,Calm,Calm,-,N/A,,Clear,0,2013-07-21 00:51:00
9:51 PM,68.0,64.9,90,29.98,10.0,Calm,Calm,-,N/A,,Clear,0,2013-07-21 01:51:00
10:51 PM,66.0,64.0,93,29.98,10.0,Calm,Calm,-,N/A,,Clear,0,2013-07-21 02:51:00
11:51 PM,64.9,63.0,93,29.98,10.0,Calm,Calm,-,N/A,,Clear,0,2013-07-21 03:51:00